Location: Ehrke Reservoir
(40.0279°N, 99.6641°W)
Time: 15:58:19
(UTC+00:00)

Cosmos 2366 rocket - Pass Details

Date: 20 January 2020
Orbit: 956 x 996 km, 82.9° (Epoch: 18 February)

Event Time Altitude Azimuth Distance (km) Brightness Sun altitude
Rises 01:01:24 0° 167° (SSE) 3,631 7.0 -15.1°
Reaches altitude 10° 01:03:58 10° 162° (SSE) 2,693 6.3 -15.6°
Maximum altitude 01:09:48 47° 90° (E) 1,271 4.2 -16.7°
Drops below altitude 10° 01:15:44 10° 19° (NNE) 2,735 6.1 -17.8°
Sets 01:18:21 0° 14° (NNE) 3,693 6.8 -18.3°
